Location: Auckland
(36.8670°S, 174.7670°E)
Time: 01:05:53
(UTC+12:00)

A-11 Canister half - Pass Details

Date: 22 July 2019
Orbit: 1526 x 1683 km, 47.3° (Epoch: 22 August)

Event Time Altitude Azimuth Distance (km) Brightness Sun altitude
Rises 17:26:22 0° 249° (WSW) 4,876 12.4 -0.6°
Reaches altitude 10° 17:30:47 10° 265° (W) 3,908 12.3 -1.4°
Maximum altitude 17:36:57 18° 304° (NW) 3,297 12.3 -2.6°
Drops below altitude 10° 17:43:11 10° 343° (NNW) 3,933 11.8 -3.7°
Sets 17:47:42 0° 360° (N) 4,919 12.0 -4.5°
